"Pseudo-MPEC" for P116hpw

Created 2020 Sep 23 3:07:26 UT using Find_Orb

Click here for an explanation of pseudo-MPECs

 
 Astrometry: 
     P116hpw  C2020 09 16@\emcPgfLJAstrometry5$Nredacted;jaQHBa/`bK#LSm^r:H[BF51
     P116hpw  C2020 09 16N_1Ec_5Jk]G,`0l:rrqxDt+k2#,4LAVT'gyD'5IrLp$fZclickqRF51
     P116hpw  C2020 09 16CR+gLjY^H?MN`)(AK(fRq5Jw_Nd?yDKBv00!Ca#hQVq3xBotfSxdF51
     P116hpw  C2020 09 16lM(eLL6IIGYKVfYLT0(wZmxQY+OwQ%),SRUTeZ0hereu!iG/S)5PF51
     P116hpw ^C2020 09 17.38851402 19 12.998+19 49 47.34   ~9HI7 21.81GVNEOCP568
     P116hpw ^C2020 09 17.38945902 19 13.021+19 49 49.20   ~9HI7 21.70GVNEOCP568
     P116hpw ^C2020 09 17.39040702 19 13.046+19 49 51.00   ~9HI7 21.54GVNEOCP568
     P116hpw  C2020 09 17dlCCWr.forSO4p2t#dO1)cA$dd%explanationt=.cmLUkixHkK0F51
     P116hpw KC2020 09 22.36058202 21 06.87 +22 13 33.5    ~9M97 21.73GVNEOCPI52
     P116hpw KC2020 09 22.36616402 21 06.87 +22 13 42.9    ~9M97 21.56GVNEOCPI52
     P116hpw KC2020 09 22.36952702 21 06.84 +22 13 48.4    ~9M97 21.79GVNEOCPI52

Station data:
(568) Mauna Kea  (N19.826116 W155.472200)  US/Hawaii.
(F51) Pan-STARRS 1, Haleakala  (N20.707235 W156.255910)  US/Hawaii.
   Observers N. Primak, A. Schultz, S. Watters, J. Thiel, T. Goggia. Measurer
   PS1 Science Consortium. 1.8-m Ritchey-Chrétien + CCD.
(I52) Steward Observatory, Mt. Lemmon Station  (N32.442547 W110.788920)
   US/Arizona.  Observers T. A. Pruyne, B. M. Africano, E. J. Christensen, G.
   A. Farneth, D. C. Fuls, A. R. Gibbs, A. D. Grauer, H. Gröller, J. A.
   Johnson, R. A. Kowalski, S. M. Larson, G. J. Leonard, D. Rankin, R. L.
   Seaman, F. C. Shelly. 1.0-m reflector + CCD.

Orbital elements:  P116hpw
   Perihelion 2020 Aug 23.642085 +/- 0.0388 TT = 15:24:36 (JD 2459085.142085)
Epoch 2020 Sep 22.0 TT = JDT 2459114.5   Earth MOID: 0.1555   AutoNEOCP
M   9.30088197 +/- 0.07             (J2000 ecliptic)
n   0.31681003 +/- 0.00288          Peri.  347.77507 +/- 0.048
a   2.13109804 +/- 0.0129           Node   352.13241 +/- 0.035
e   0.4545109 +/- 0.00304           Incl.    6.14285 +/- 0.025
P   3.11                   H 23.2   G  0.15   U  8.8  
q 1.16249072 +/- 0.000662    Q 3.09970535 +/- 0.0255
From 11 observations 2020 Sept. 16-22; mean residual 0".10
Residuals in arcseconds: 
200916 F51  .01+  .00     200917 568  .00   .04-    200922 I52  .09+  .24-    
200916 F51  .01-  .08-    200917 568  .01-  .00     200922 I52  .15+  .10+    
200916 F51  .10-  .07-    200917 568  .00   .02-    200922 I52  .23-  .14+    
200916 F51  .11+  .16+    200917 F51  .01+  .06+    

Ephemerides (geocentric):
Date (UTC) HH   RA              Dec         delta   r     elong  mag " sig PA
---- -- -- --  -------------   -----------  ------ ------ -----  --- ---- ---
2020 09 23 03  02 21 14.387   +22 33 54.07  .25415 1.2072 139.2 22.0 .227 117
2020 09 23 04  02 21 14.756   +22 34 59.37  .25422 1.2073 139.2 22.0 .237 117
2020 09 23 05  02 21 15.117   +22 36 04.58  .25429 1.2074 139.2 22.0 .247 117
2020 09 23 06  02 21 15.471   +22 37 09.69  .25436 1.2076 139.3 22.0 .257 117
2020 09 23 07  02 21 15.818   +22 38 14.72  .25443 1.2077 139.3 22.0 .267 117
2020 09 23 08  02 21 16.158   +22 39 19.65  .25450 1.2078 139.3 22.0 .278 116
2020 09 23 09  02 21 16.490   +22 40 24.50  .25457 1.2079 139.3 22.0 .288 116
2020 09 23 10  02 21 16.815   +22 41 29.25  .25464 1.2080 139.4 22.0 .299 116
2020 09 23 11  02 21 17.132   +22 42 33.91  .25471 1.2082 139.4 22.0 .310 116
2020 09 23 12  02 21 17.443   +22 43 38.48  .25478 1.2083 139.4 22.0 .321 116
2020 09 23 13  02 21 17.746   +22 44 42.97  .25485 1.2084 139.5 22.0 .332 116
2020 09 23 14  02 21 18.042   +22 45 47.36  .25492 1.2085 139.5 22.0 .343 116
2020 09 23 15  02 21 18.331   +22 46 51.66  .25499 1.2086 139.5 22.0 .354 116
2020 09 23 16  02 21 18.612   +22 47 55.87  .25506 1.2088 139.6 22.0 .366 116
2020 09 23 17  02 21 18.887   +22 48 59.99  .25513 1.2089 139.6 22.0 .377 115
2020 09 23 18  02 21 19.154   +22 50 04.01  .25520 1.2090 139.6 22.0 .389 115
2020 09 23 19  02 21 19.414   +22 51 07.95  .25527 1.2091 139.6 22.0 .401 115
2020 09 23 20  02 21 19.666   +22 52 11.80  .25534 1.2092 139.7 22.0 .412 115
2020 09 23 21  02 21 19.912   +22 53 15.55  .25542 1.2094 139.7 22.0 .424 115
2020 09 23 22  02 21 20.150   +22 54 19.22  .25549 1.2095 139.7 22.0 .436 115
2020 09 23 23  02 21 20.381   +22 55 22.79  .25556 1.2096 139.8 22.0 .449 115
2020 09 24 00  02 21 20.605   +22 56 26.27  .25563 1.2097 139.8 22.0 .461 115
2020 09 24 01  02 21 20.822   +22 57 29.67  .25570 1.2098 139.8 22.0 .473 115
2020 09 24 02  02 21 21.032   +22 58 32.97  .25577 1.2100 139.9 22.0 .486 115
2020 09 24 03  02 21 21.234   +22 59 36.18  .25585 1.2101 139.9 22.0 .498 115
2020 09 24 04  02 21 21.430   +23 00 39.30  .25592 1.2102 139.9 22.0 .511 114
2020 09 24 05  02 21 21.618   +23 01 42.32  .25599 1.2103 140.0 22.0 .524 114
2020 09 24 06  02 21 21.799   +23 02 45.26  .25606 1.2105 140.0 22.0 .537 114
2020 09 24 07  02 21 21.973   +23 03 48.11  .25613 1.2106 140.0 22.0 .550 114
2020 09 24 08  02 21 22.140   +23 04 50.86  .25621 1.2107 140.0 22.0 .563 114
2020 09 24 09  02 21 22.300   +23 05 53.53  .25628 1.2108 140.1 22.0 .577 114
2020 09 24 10  02 21 22.453   +23 06 56.10  .25635 1.2109 140.1 22.0 .590 114
2020 09 24 11  02 21 22.598   +23 07 58.58  .25643 1.2111 140.1 22.0 .604 114
2020 09 24 12  02 21 22.737   +23 09 00.97  .25650 1.2112 140.2 22.0 .617 114
2020 09 24 13  02 21 22.868   +23 10 03.27  .25657 1.2113 140.2 22.0 .631 114
2020 09 24 14  02 21 22.993   +23 11 05.48  .25664 1.2114 140.2 22.0 .645 114
2020 09 24 15  02 21 23.110   +23 12 07.60  .25672 1.2116 140.3 22.0 .659 114
2020 09 24 16  02 21 23.221   +23 13 09.63  .25679 1.2117 140.3 22.0 .673 114
2020 09 24 17  02 21 23.324   +23 14 11.56  .25687 1.2118 140.3 22.0 .687 113
2020 09 24 18  02 21 23.420   +23 15 13.41  .25694 1.2119 140.3 22.0 .701 113
2020 09 24 19  02 21 23.509   +23 16 15.16  .25701 1.2121 140.4 22.0 .716 113
2020 09 24 20  02 21 23.591   +23 17 16.82  .25709 1.2122 140.4 22.0 .730 113
2020 09 24 21  02 21 23.667   +23 18 18.39  .25716 1.2123 140.4 22.0 .745 113
2020 09 24 22  02 21 23.735   +23 19 19.87  .25724 1.2124 140.5 22.0 .760 113
2020 09 24 23  02 21 23.796   +23 20 21.26  .25731 1.2126 140.5 22.0 .775 113
2020 09 25 00  02 21 23.850   +23 21 22.55  .25738 1.2127 140.5 22.0 .790 113
2020 09 25 01  02 21 23.897   +23 22 23.76  .25746 1.2128 140.6 22.0 .805 113
2020 09 25 02  02 21 23.938   +23 23 24.87  .25753 1.2129 140.6 22.0 .820 113